Location: Bas Lanzent
(48.1360°N, 3.5871°W)
Time: 16:55:14
(UTC+00:00)

ATLAS CENTAUR R/B - Pass Details

Date: 18 February 2020
Orbit: 466 x 681 km, 64.7° (Epoch: 26 March)

Event Time Altitude Azimuth Distance (km) Brightness Sun altitude
Exits shadow 03:46:14 21° 67° (ENE) 1,426 4.0 -35.3°
Drops below altitude 10° 03:47:57 10° 54° (NE) 1,990 4.9 -35.0°
Sets 03:50:18 0° 45° (NE) 2,863 5.9 -34.6°
